CZ-4C DEB, 40114

Orbit data source: Space-Track

CZ-4C DEB, 40114 is space debris in LEO originally from a launch on Sat, 09 Aug 2014 UTC launched from the Jiuquan Satellite Launch Center, China (JSC). Debris objects in space refer to the collection of defunct objects orbiting the Earth. Examples of debris include non-operational satellites, rocket bodies, and fragments generated from explosions, collisions, or faulty payload assembly.

Loading next visibility...
Identifier
40114, 2014-047F
Orbit
LEO
Country
Flag of CNCN / PRC
Related business
Manufacturer
CAST
Mission
Spacecraft
Bus & Motor
Unknown
Mass
Unknown
Launch date (UTC)
2014-08-09 (11 years ago)
Launch vehicle
Unknown
Launch site
Jiuquan Satellite Launch Center, China (JSC)
Object type
Payload
Rocket body
Debris
Shape & HBR
Unknown shape, 2.2 m
Radar Cross Section
Large (>1 m²)

Expand to show TLE details & history
Last TLE update: 13 hours ago

TLE from 13 hours ago
0 CZ-4C DEB
1 40114U 14047F   26036.04776099  .00000232  00000-0  35835-3 0  9999
2 40114  63.3819  27.1471 0379125  14.3727 346.7732 13.44421713564147
Epoch: 2026-02-05T01:08Z
TLE epoch observation values (Epoch: 2026-02-05T01:08:46.549Z)
Latitude
-0.00006°
Longitude
-125.25248°
Altitude
819.457 km
Speed
7.58 km/s
True Right ascension
01h 48m 35s
True Declination
0° 00' 00"
Sunlit
Object was in daylight at epoch
Visualization orbit readout
Latitude
Unknown
Longitude
Unknown
Altitude
Unknown
Speed
Unknown
Apparent Right ascension
Unknown
Apparent Declination
Unknown
Sunlit
N/A
Visualization observer readout
Local Sidereal Time
15:58:59
Azimuth
Unknown
Elevation
Unknown
Doppler factor
Unknown
Orbital elements
Apogee altitude
1,374.882 km
Perigee altitude
808.483 km
Semi-major axis
7,469.82 km
Eccentricity
0.03791
Inclination
63.3819°
RAAN
27.1471°
Arg. of periapsis
14.3727°
True anomaly
345.73124°
Mean anomaly
346.7732°
Eccentric anomaly
346.25716°
Mean motion
3.36185 °/min
Orbital period
107.08 mins
BSTAR
0.00035835
Loading maneuver chart data...
Computing Atmospheric mass density...
Loading historical data...
Loading historical data...
Loading historical data...
Loading historical data...
Loading historical data...
Loading historical data...
Loading historical data...

Documentation

Showing up to 5 results
|